Torna al catalogo

ONEWEB-0553

AttivoComunicazioniPO
NORAD 56055·PAYLOAD·🇬🇧 United Kingdom

Lanciato Mar 26, 2023 da Satish Dhawan Space Centre

Loading…

Prossimi Passaggi (prossime 24 ore)

TLE

AggiornatoSource: CelesTrak SupGP

Epoca: Sep 14, 2026, 13:28 UTC

1 56055C 23043K   26257.56161296 -.00000586  00000+0 -15352-2 0  2576
2 56055  87.9154 211.0281 0001914  92.4630 302.0238 13.16596628    17

Traccia ONEWEB-0553 in tempo reale con AllMySat

Download on the App Store